AAL2785 KLAX-KLAS

Flight info

Callsign AAL2785
Flight time N/A
Altitude 29000
Route ORCKA5 MISEN RNDRZ4
Aircraft A320/M-SDE3FGHIRWY/LB1

Departure

Time 2026-05-06 03:21
Airport Los Angeles International Airport (KLAX)

Arrival

Time N/A
Airport Harry Reid International Airport (KLAS)
Time Latitude Longitude Altitude Speed Heading
2026-05-06 03:02 33.94047 -118.40746 122 ft 0 kts 107°
2026-05-06 03:09 33.94051 -118.40760 124 ft 3 kts 110°
2026-05-06 03:09 33.94060 -118.40784 123 ft 3 kts 119°
2026-05-06 03:09 33.94072 -118.40807 122 ft 3 kts 131°
2026-05-06 03:10 33.94088 -118.40826 125 ft 3 kts 148°
2026-05-06 03:10 33.94106 -118.40835 123 ft 1 kts 173°
2026-05-06 03:10 33.94107 -118.40836 123 ft 0 kts 173°
2026-05-06 03:15 33.94096 -118.40834 125 ft 3 kts 173°
2026-05-06 03:15 33.94066 -118.40829 123 ft 6 kts 172°
2026-05-06 03:15 33.94015 -118.40822 123 ft 9 kts 173°
2026-05-06 03:15 33.93944 -118.40811 123 ft 12 kts 173°
2026-05-06 03:16 33.93871 -118.40759 125 ft 14 kts 130°
2026-05-06 03:16 33.93811 -118.40667 123 ft 16 kts 77°
2026-05-06 03:16 33.93824 -118.40527 126 ft 18 kts 83°
2026-05-06 03:16 33.93841 -118.40365 124 ft 21 kts 83°
2026-05-06 03:17 33.93856 -118.40216 124 ft 14 kts 81°
2026-05-06 03:17 33.93869 -118.40090 124 ft 17 kts 82°
2026-05-06 03:17 33.93884 -118.39941 122 ft 19 kts 83°
2026-05-06 03:17 33.93902 -118.39769 126 ft 22 kts 84°
2026-05-06 03:18 33.93920 -118.39584 126 ft 13 kts 82°
2026-05-06 03:18 33.93933 -118.39462 126 ft 16 kts 83°
2026-05-06 03:18 33.93948 -118.39318 126 ft 19 kts 83°
2026-05-06 03:18 33.93964 -118.39152 124 ft 22 kts 83°
2026-05-06 03:19 33.93984 -118.38960 123 ft 25 kts 83°
2026-05-06 03:19 33.94006 -118.38743 126 ft 27 kts 82°
2026-05-06 03:19 33.94031 -118.38504 126 ft 30 kts 83°
2026-05-06 03:19 33.94051 -118.38320 124 ft 16 kts 82°
2026-05-06 03:20 33.94072 -118.38027 126 ft 13 kts 118°
2026-05-06 03:20 33.93991 -118.38012 126 ft 13 kts 221°
2026-05-06 03:20 33.93975 -118.38128 126 ft 17 kts 263°
2026-05-06 03:21 33.93938 -118.38483 121 ft 77 kts 263°
2026-05-06 03:21 33.93847 -118.39368 126 ft 136 kts 263°
2026-05-06 03:21 33.93717 -118.40659 329 ft 164 kts 264°
2026-05-06 03:21 33.93589 -118.42026 1086 ft 164 kts 266°
2026-05-06 03:22 33.93536 -118.43384 1901 ft 161 kts 266°
2026-05-06 03:22 33.93480 -118.44792 2402 ft 179 kts 265°
2026-05-06 03:22 33.93156 -118.46337 2739 ft 203 kts 249°
2026-05-06 03:22 33.92601 -118.47992 3141 ft 224 kts 248°
2026-05-06 03:23 33.91953 -118.49773 3690 ft 244 kts 246°
2026-05-06 03:23 33.91238 -118.51702 4390 ft 258 kts 247°
2026-05-06 03:23 33.90510 -118.53681 5301 ft 265 kts 248°
2026-05-06 03:23 33.89770 -118.55728 6261 ft 270 kts 249°
2026-05-06 03:24 33.89001 -118.57811 7127 ft 276 kts 243°
2026-05-06 03:24 33.87733 -118.59576 7941 ft 287 kts 216°
2026-05-06 03:24 33.85884 -118.60526 8743 ft 295 kts 189°
2026-05-06 03:24 33.83824 -118.60522 9639 ft 298 kts 173°